SWA2524 PHKO-PHNL

Flight info

Callsign SWA2524
Flight time N/A
Altitude 16000
Route V20 HOKLA
Aircraft B38M/M-SDE1FGHILORVWXY/HB1

Departure

Time 2026-05-08 05:37
Airport Ellison Onizuka Kona International Airport at Keāhole (PHKO)

Arrival

Time N/A
Airport Daniel K. Inouye International Airport (PHNL)
Time Latitude Longitude Altitude Speed Heading
2026-05-08 05:05 19.73674 -156.04202 51 ft 0 kts 95°
2026-05-08 05:23 19.73674 -156.04207 51 ft 4 kts 94°
2026-05-08 05:24 19.73675 -156.04236 50 ft 4 kts 86°
2026-05-08 05:24 19.73671 -156.04264 48 ft 4 kts 77°
2026-05-08 05:24 19.73663 -156.04291 49 ft 4 kts 65°
2026-05-08 05:24 19.73649 -156.04315 49 ft 4 kts 49°
2026-05-08 05:25 19.73629 -156.04332 47 ft 4 kts 19°
2026-05-08 05:25 19.73618 -156.04335 51 ft 1 kts
2026-05-08 05:28 19.73625 -156.04334 51 ft 2 kts
2026-05-08 05:28 19.73651 -156.04331 51 ft 5 kts
2026-05-08 05:28 19.73698 -156.04326 50 ft 8 kts
2026-05-08 05:28 19.73763 -156.04319 50 ft 11 kts
2026-05-08 05:29 19.73848 -156.04312 49 ft 13 kts
2026-05-08 05:29 19.73946 -156.04304 50 ft 13 kts
2026-05-08 05:29 19.74039 -156.04295 50 ft 14 kts
2026-05-08 05:29 19.74143 -156.04287 51 ft 16 kts
2026-05-08 05:30 19.74253 -156.04277 53 ft 16 kts
2026-05-08 05:30 19.74364 -156.04266 54 ft 16 kts
2026-05-08 05:30 19.74443 -156.04260 54 ft 8 kts
2026-05-08 05:30 19.74493 -156.04256 57 ft 8 kts
2026-05-08 05:31 19.74552 -156.04250 55 ft 10 kts
2026-05-08 05:31 19.74627 -156.04250 57 ft 12 kts 358°
2026-05-08 05:31 19.74714 -156.04255 58 ft 12 kts
2026-05-08 05:31 19.74800 -156.04236 58 ft 13 kts 14°
2026-05-08 05:32 19.74854 -156.04223 60 ft 0 kts
2026-05-08 05:32 19.74861 -156.04223 60 ft 0 kts
2026-05-08 05:32 19.74870 -156.04222 60 ft 2 kts
2026-05-08 05:32 19.74895 -156.04220 60 ft 5 kts
2026-05-08 05:33 19.74939 -156.04216 60 ft 8 kts
2026-05-08 05:33 19.75005 -156.04211 58 ft 12 kts
2026-05-08 05:33 19.75100 -156.04203 56 ft 16 kts
2026-05-08 05:33 19.75220 -156.04191 53 ft 19 kts
2026-05-08 05:34 19.75272 -156.04186 53 ft 0 kts
2026-05-08 05:34 19.75273 -156.04186 53 ft 0 kts
2026-05-08 05:34 19.75286 -156.04185 54 ft 5 kts
2026-05-08 05:35 19.75350 -156.04201 56 ft 12 kts 307°
2026-05-08 05:35 19.75364 -156.04297 56 ft 15 kts 274°
2026-05-08 05:35 19.75371 -156.04414 55 ft 7 kts 264°
2026-05-08 05:35 19.75351 -156.04434 55 ft 0 kts 188°
2026-05-08 05:36 19.75340 -156.04435 53 ft 6 kts 186°
2026-05-08 05:36 19.75053 -156.04460 57 ft 77 kts 185°
2026-05-08 05:36 19.74300 -156.04528 55 ft 138 kts 185°
2026-05-08 05:36 19.73221 -156.04634 268 ft 166 kts 189°
2026-05-08 05:37 19.72244 -156.05187 1043 ft 165 kts 229°
2026-05-08 05:37 19.71833 -156.06339 1514 ft 175 kts 272°
2026-05-08 05:37 19.72285 -156.07555 2026 ft 190 kts 311°
2026-05-08 05:37 19.73473 -156.08339 2376 ft 215 kts 338°
2026-05-08 05:38 19.74774 -156.09231 2862 ft 234 kts 309°
2026-05-08 05:38 19.75751 -156.10687 3398 ft 252 kts 304°
2026-05-08 05:38 19.76794 -156.12262 3937 ft 269 kts 304°
2026-05-08 05:38 19.77873 -156.13899 4826 ft 271 kts 304°
2026-05-08 05:39 19.78959 -156.15554 5645 ft 277 kts 305°
2026-05-08 05:39 19.80070 -156.17251 6438 ft 281 kts 305°
2026-05-08 05:39 19.81184 -156.18956 7274 ft 283 kts 304°
2026-05-08 05:39 19.82313 -156.20683 8064 ft 286 kts 304°
2026-05-08 05:40 19.83454 -156.22429 8862 ft 289 kts 304°
2026-05-08 05:40 19.84603 -156.24189 9666 ft 291 kts 304°
2026-05-08 05:40 19.85765 -156.25970 10342 ft 298 kts 304°
2026-05-08 05:40 19.86982 -156.27834 10684 ft 317 kts 304°
2026-05-08 05:41 19.88251 -156.29779 11101 ft 331 kts 304°
2026-05-08 05:41 19.89593 -156.31836 11747 ft 335 kts 304°
2026-05-08 05:41 19.90926 -156.33882 12497 ft 339 kts 304°
2026-05-08 05:41 19.92262 -156.35930 13219 ft 344 kts 304°
2026-05-08 05:42 19.93646 -156.38057 14346 ft 348 kts 304°
2026-05-08 05:42 19.95015 -156.40158 14618 ft 350 kts 304°
2026-05-08 05:42 19.96404 -156.42292 15328 ft 354 kts 304°
2026-05-08 05:42 19.97821 -156.44468 15880 ft 360 kts 304°
2026-05-08 05:43 19.99249 -156.46666 16037 ft 365 kts 304°
2026-05-08 05:43 20.00716 -156.48922 16039 ft 376 kts 304°
2026-05-08 05:43 20.02213 -156.51224 16060 ft 381 kts 304°
2026-05-08 05:43 20.03728 -156.53554 16081 ft 383 kts 304°
2026-05-08 05:44 20.05241 -156.55885 16084 ft 383 kts 304°
2026-05-08 05:44 20.06756 -156.58219 16089 ft 383 kts 304°
2026-05-08 05:44 20.08271 -156.60554 16090 ft 384 kts 304°
2026-05-08 05:44 20.09789 -156.62894 16090 ft 384 kts 304°
2026-05-08 05:45 20.11308 -156.65235 16088 ft 384 kts 304°
2026-05-08 05:45 20.12821 -156.67570 16089 ft 383 kts 304°
2026-05-08 05:45 20.14336 -156.69908 16087 ft 383 kts 304°
2026-05-08 05:45 20.15844 -156.72236 16090 ft 383 kts 304°
2026-05-08 05:46 20.17358 -156.74575 16091 ft 384 kts 304°
2026-05-08 05:46 20.18854 -156.76885 16096 ft 384 kts 304°
2026-05-08 05:46 20.20371 -156.79230 16089 ft 383 kts 304°
2026-05-08 05:46 20.21880 -156.81563 16092 ft 383 kts 304°
2026-05-08 05:47 20.23624 -156.83703 16093 ft 382 kts 317°
2026-05-08 05:47 20.25558 -156.85651 16091 ft 383 kts 316°
2026-05-08 05:47 20.27490 -156.87611 16091 ft 383 kts 316°
2026-05-08 05:47 20.29422 -156.89566 16091 ft 383 kts 316°
2026-05-08 05:48 20.31349 -156.91514 16091 ft 383 kts 316°
2026-05-08 05:48 20.33284 -156.93469 16091 ft 384 kts 316°
2026-05-08 05:48 20.35221 -156.95429 16091 ft 383 kts 316°
2026-05-08 05:48 20.37154 -156.97385 16091 ft 383 kts 316°
2026-05-08 05:49 20.39086 -156.99339 16090 ft 383 kts 316°
2026-05-08 05:49 20.41024 -157.01302 16092 ft 383 kts 316°
2026-05-08 05:49 20.42957 -157.03260 16094 ft 383 kts 316°
2026-05-08 05:49 20.44866 -157.05194 16093 ft 383 kts 316°
2026-05-08 05:50 20.46797 -157.07151 16097 ft 383 kts 316°
2026-05-08 05:50 20.48731 -157.09112 16098 ft 383 kts 316°
2026-05-08 05:50 20.50658 -157.11067 16097 ft 383 kts 316°
2026-05-08 05:50 20.52590 -157.13027 16098 ft 383 kts 316°
2026-05-08 05:51 20.54520 -157.14986 16094 ft 383 kts 316°
2026-05-08 05:51 20.56451 -157.16948 16095 ft 383 kts 316°
2026-05-08 05:51 20.58381 -157.18908 16092 ft 383 kts 316°
2026-05-08 05:51 20.60306 -157.20864 16097 ft 376 kts 316°
2026-05-08 05:52 20.62161 -157.22751 16116 ft 360 kts 316°
2026-05-08 05:52 20.63937 -157.24557 16036 ft 348 kts 316°
2026-05-08 05:52 20.65668 -157.26318 15774 ft 342 kts 315°
2026-05-08 05:52 20.67347 -157.28050 15423 ft 339 kts 315°
2026-05-08 05:53 20.69041 -157.29797 15100 ft 336 kts 315°
2026-05-08 05:53 20.70719 -157.31527 14765 ft 334 kts 315°
2026-05-08 05:53 20.72385 -157.33244 14427 ft 332 kts 315°
2026-05-08 05:53 20.74045 -157.34956 14079 ft 330 kts 315°
2026-05-08 05:54 20.75694 -157.36658 13704 ft 329 kts 315°
2026-05-08 05:54 20.77334 -157.38351 13326 ft 327 kts 315°
2026-05-08 05:54 20.78969 -157.40038 12970 ft 324 kts 315°
2026-05-08 05:54 20.80568 -157.41689 12630 ft 322 kts 315°
2026-05-08 05:55 20.82172 -157.43346 12294 ft 319 kts 315°
2026-05-08 05:55 20.83763 -157.44991 11953 ft 317 kts 315°
2026-05-08 05:55 20.85341 -157.46622 11617 ft 315 kts 315°
2026-05-08 05:55 20.86913 -157.48247 11278 ft 313 kts 315°
2026-05-08 05:56 20.88473 -157.49862 10947 ft 311 kts 315°
2026-05-08 05:56 20.90026 -157.51467 10658 ft 308 kts 315°
2026-05-08 05:56 20.91550 -157.53044 10518 ft 300 kts 315°
2026-05-08 05:56 20.93028 -157.54574 10375 ft 291 kts 315°
2026-05-08 05:57 20.94465 -157.56062 10243 ft 283 kts 315°
2026-05-08 05:57 20.95765 -157.57572 10008 ft 277 kts 301°
2026-05-08 05:57 20.96514 -157.59457 9654 ft 275 kts 288°
2026-05-08 05:57 20.97151 -157.61379 9352 ft 273 kts 289°
2026-05-08 05:58 20.97777 -157.63288 9054 ft 271 kts 289°
2026-05-08 05:58 20.98392 -157.65187 8762 ft 269 kts 288°
2026-05-08 05:58 20.99003 -157.67085 8435 ft 269 kts 289°
2026-05-08 05:58 20.99606 -157.68971 8131 ft 268 kts 289°
2026-05-08 05:59 21.00209 -157.70860 7834 ft 267 kts 289°
2026-05-08 05:59 21.00807 -157.72737 7547 ft 266 kts 289°
2026-05-08 05:59 21.01401 -157.74603 7255 ft 265 kts 289°
2026-05-08 05:59 21.01994 -157.76465 6977 ft 264 kts 289°
2026-05-08 06:00 21.02584 -157.78321 6698 ft 263 kts 289°
2026-05-08 06:00 21.03165 -157.80146 6414 ft 262 kts 289°
2026-05-08 06:00 21.03756 -157.82005 6123 ft 266 kts 289°
2026-05-08 06:00 21.04358 -157.83900 5816 ft 270 kts 289°
2026-05-08 06:01 21.04963 -157.85806 5516 ft 271 kts 289°
2026-05-08 06:01 21.05568 -157.87712 5216 ft 270 kts 289°
2026-05-08 06:01 21.05970 -157.88977 5029 ft 270 kts 290°
2026-05-08 06:01 21.06574 -157.90879 4717 ft 269 kts 290°
2026-05-08 06:02 21.07211 -157.92759 4405 ft 267 kts 299°
2026-05-08 06:02 21.08380 -157.94240 4108 ft 260 kts 327°
2026-05-08 06:02 21.09878 -157.95239 4034 ft 248 kts 333°
2026-05-08 06:02 21.11334 -157.96164 3939 ft 239 kts 333°
2026-05-08 06:03 21.12752 -157.97051 3780 ft 232 kts 333°
2026-05-08 06:03 21.14126 -157.97904 3698 ft 223 kts 333°
2026-05-08 06:03 21.15451 -157.98721 3489 ft 221 kts 335°
2026-05-08 06:03 21.16787 -157.99536 3167 ft 218 kts 335°
2026-05-08 06:04 21.18097 -158.00334 2870 ft 214 kts 334°
2026-05-08 06:04 21.19372 -158.01111 2625 ft 208 kts 336°
2026-05-08 06:04 21.20597 -158.01864 2442 ft 199 kts 335°
2026-05-08 06:04 21.21762 -158.02576 2303 ft 187 kts 336°
2026-05-08 06:05 21.22916 -158.02884 2180 ft 161 kts 13°
2026-05-08 06:05 21.23891 -158.02434 2116 ft 156 kts 36°
2026-05-08 06:05 21.24762 -158.01746 2016 ft 154 kts 42°
2026-05-08 06:05 21.25522 -158.00948 1849 ft 152 kts 48°
2026-05-08 06:06 21.26190 -158.00090 1701 ft 149 kts 53°
2026-05-08 06:06 21.26823 -157.99208 1524 ft 149 kts 53°
2026-05-08 06:06 21.27438 -157.98328 1278 ft 147 kts 52°
2026-05-08 06:06 21.28071 -157.97436 1081 ft 151 kts 52°
2026-05-08 06:07 21.28683 -157.96563 900 ft 141 kts 51°
2026-05-08 06:07 21.29247 -157.95751 1024 ft 136 kts 51°
2026-05-08 06:07 21.29859 -157.94889 27 ft 157 kts 51°
2026-05-08 06:07 21.30379 -157.94236 252 ft 130 kts 50°